Location: De Har
(53.3413°N, 6.6858°E)
Time: 20:59:45
(UTC+00:00)

Cosmos 1758 Rocket - Pass Details

Date: 22 April 2026
Orbit: 596 x 627 km, 82.5° (Epoch: 21 May)

Event Time Altitude Azimuth Distance (km) Brightness Sun altitude
Rises 00:00:47 0° 343° (NNW) 2,854 8.0 -24.2°
Reaches altitude 10° 00:03:05 10° 336° (NNW) 1,949 6.9 -24.2°
Enters shadow 00:06:42 39° 283° (WNW) 907 4.3 -24.1°
